Back to catalog

THOR ABLESTAR DEB

AliveLEO
NORAD 254·DEBRIS·🇺🇸 United States

Launched Jun 29, 1961 from Cape Canaveral Space Force Station

Loading…

Next Passes (next 24 hours)

TLE

FreshSource: Space-Track

Epoch: Sep 10, 2026, 17:00 UTC

1 00254U 61015CF  26253.70848997  .00000899  00000-0  23561-3 0  9990
2 00254  66.7719  47.4457 0057856   5.2422 354.9281 14.53050330386100

Track THOR ABLESTAR DEB in real time with AllMySat

Download on the App Store